Torna al catalogo

DELTA 1 DEB

AttivoSSO
NORAD 19291·DEBRIS·🇺🇸 United States

Lanciato Nov 6, 1973 da Vandenberg Space Force Base

Loading…

Prossimi Passaggi (prossime 24 ore)

TLE

AggiornatoSource: Space-Track

Epoca: Sep 12, 2026, 09:40 UTC

1 19291U 73086HD  26255.40340953  .00000088  00000-0  85301-3 0  9990
2 19291 101.8404 233.3398 0036713 359.3889 156.5484 12.51682393744398

Traccia DELTA 1 DEB in tempo reale con AllMySat

Download on the App Store